This demonstration page uses our WeatherBlox Daily Observations layout. Learn more.

Left ArrowRight Arrow

44.89941, -97.11507

Hourly Observations for May 10, 2022

Temp ( °F °C ) Dew Point ( °F °C ) Humidity (%) Winds ( mph kmh ) Pressure ( in mb ) Visibility ( mi km ) Precip ( " mm )
12:53 am 00:53 Clear 49 9.4 44 6.7 83 83 WNW 3 6 29.80 1009 10 16 0.00 0.00
1:53 am 01:53 Cloudy 52 11.1 45 7.2 77 77 WNW 6 9 29.80 1009 10 16 0.00 0.00
2:53 am 02:53 Cloudy 53 11.7 47 8.3 80 80 Calm 29.84 1011 10 16 0.00 0.00
3:53 am 03:53 Cloudy 53 11.7 46 7.8 77 77 Calm 29.89 1012 10 16 0.00 0.00
4:53 am 04:53 Cloudy 51 10.6 46 7.8 83 83 Calm 29.92 1013 10 16 0.00 0.00
5:53 am 05:53 Cloudy 51 10.6 46 7.8 83 83 SSE 3 6 29.95 1014 10 16 0.00 0.00
6:53 am 06:53 Cloudy 51 10.6 47 8.3 86 86 SSE 3 6 30.00 1016 10 16 0.00 0.00
7:53 am 07:53 Mostly Cloudy 53 11.7 47 8.3 80 80 S 3 6 30.02 1017 10 16 0.00 0.00
8:53 am 08:53 Mostly Cloudy 56 13.3 47 8.3 72 72 S 5 7 30.04 1017 10 16 0.00 0.00
9:53 am 09:53 Partly Cloudy 59 15 45 7.2 60 60 WSW 3 6 30.06 1018 10 16 0.00 0.00
10:53 am 10:53 Sunny 63 17.2 40 4.4 43 43 NW 6 9 30.06 1018 10 16 0.00 0.00
11:53 am 11:53 Sunny 66 18.9 38 3.3 36 36 undefined N/A 30.06 1018 10 16 0.00 0.00
12:53 pm 12:53 Sunny 67 19.4 36 2.2 32 32 SSE 3 6 30.04 1017 10 16 0.00 0.00
1:53 pm 13:53 Sunny 71 21.7 38 3.3 30 30 VRB 7 11 30.03 1017 10 16 0.00 0.00
2:53 pm 14:53 Sunny 72 22.2 36 2.2 27 27 VRB 3 6 30.02 1017 10 16 0.00 0.00
3:53 pm 15:53 Sunny 73 22.8 36 2.2 26 26 VRB 7 11 30.02 1017 10 16 0.00 0.00
4:53 pm 16:53 Sunny 73 22.8 35 1.7 25 25 Calm 30.02 1017 10 16 0.00 0.00
5:53 pm 17:53 Sunny 73 22.8 38 3.3 28 28 NW 5 7 30.03 1017 10 16 0.00 0.00
6:07 pm 18:07 Hazy 73 22.8 36 2.2 26 26 Calm 29.97 1015 2 3 0.00 0.00
6:15 pm 18:15 Hazy 74 23.3 37 2.8 26 26 Calm 29.96 1015 3 5 0.00 0.00
6:53 pm 18:53 Sunny 71 21.7 41 5 34 34 NW 5 7 30.04 1017 10 16 0.00 0.00
7:53 pm 19:53 Sunny 64 17.8 49 9.4 58 58 N 7 11 30.05 1018 10 16 0.00 0.00
8:53 pm 20:53 Clear 60 15.6 46 7.8 60 60 NNE 8 13 30.06 1018 10 16 0.00 0.00
9:53 pm 21:53 Clear 57 13.9 46 7.8 67 67 NE 7 11 30.09 1019 10 16 0.00 0.00
10:53 pm 22:53 Clear 59 15 45 7.2 60 60 NE 8 13 30.10 1019 10 16 0.00 0.00
11:53 pm 23:53 Clear 56 13.3 45 7.2 67 67 ENE 8 13 30.09 1019 10 16 0.00 0.00

Powered by AerisWeather